Time,TemperatureF,DewpointF,PressureIn,WindDirection,WindDirectionDegrees,WindSpeedMPH,WindSpeedGustMPH,Humidity,HourlyPrecipIn,Conditions,Clouds,dailyrainin,SoftwareType,DateUTC
2013-01-22 00:12:00,48.0,39.8,30.35,South,188,0.0,0.0,73,0.00,,SCT200,0.00,VWS V14.01,2013-01-22 06:12:00,
2013-01-22 00:22:00,47.6,39.7,30.35,South,188,0.0,0.0,74,0.00,,SCT200,0.00,VWS V14.01,2013-01-22 06:22:00,
2013-01-22 00:32:00,47.3,39.5,30.36,South,188,0.0,0.0,74,0.00,,SCT200,0.00,VWS V14.01,2013-01-22 06:32:00,
2013-01-22 00:42:00,47.0,39.5,30.36,South,188,0.0,0.0,75,0.00,,SCT200,0.00,VWS V14.01,2013-01-22 06:42:00,
2013-01-22 00:52:00,46.5,39.0,30.36,South,188,0.0,0.0,75,0.00,,SCT200,0.00,VWS V14.01,2013-01-22 06:52:00,
2013-01-22 01:02:00,46.2,39.1,30.37,South,188,0.0,0.0,76,0.00,,SCT200,0.00,VWS V14.01,2013-01-22 07:02:00,
2013-01-22 01:12:00,46.0,38.9,30.37,South,188,0.0,0.0,76,0.00,,SCT200,0.00,VWS V14.01,2013-01-22 07:12:00,
2013-01-22 01:22:00,45.5,38.7,30.36,South,188,0.0,0.0,77,0.00,,SCT200,0.00,VWS V14.01,2013-01-22 07:22:00,
2013-01-22 01:32:00,45.1,38.3,30.36,South,188,0.0,0.0,77,0.00,,SCT200,0.00,VWS V14.01,2013-01-22 07:32:00,
2013-01-22 01:42:00,44.8,38.0,30.36,South,188,0.0,0.0,77,0.00,,SCT200,0.00,VWS V14.01,2013-01-22 07:42:00,
2013-01-22 01:52:00,44.3,37.6,30.37,South,188,0.0,0.0,77,0.00,,SCT200,0.00,VWS V14.01,2013-01-22 07:52:00,
2013-01-22 02:02:00,43.8,37.4,30.37,South,188,0.0,0.0,78,0.00,,SCT200,0.00,VWS V14.01,2013-01-22 08:02:00,
2013-01-22 02:12:00,43.5,37.4,30.37,South,188,0.0,0.0,79,0.00,,SCT200,0.00,VWS V14.01,2013-01-22 08:12:00,
2013-01-22 02:22:00,43.2,37.1,30.38,South,188,0.0,0.0,79,0.00,,SCT200,0.00,VWS V14.01,2013-01-22 08:22:00,
2013-01-22 02:32:00,42.9,37.2,30.38,South,188,0.0,0.0,80,0.00,,SCT200,0.00,VWS V14.01,2013-01-22 08:32:00,
2013-01-22 02:42:00,42.9,37.2,30.38,South,188,0.0,0.0,80,0.00,,SCT200,0.00,VWS V14.01,2013-01-22 08:42:00,
2013-01-22 02:52:00,42.9,37.5,30.38,South,188,0.0,0.0,81,0.00,,SCT200,0.00,VWS V14.01,2013-01-22 08:52:00,
2013-01-22 03:02:00,42.9,37.5,30.38,South,188,0.0,0.0,81,0.00,,SCT200,0.00,VWS V14.01,2013-01-22 09:02:00,
2013-01-22 03:12:00,42.9,37.8,30.38,South,188,0.0,0.0,82,0.00,,SCT200,0.00,VWS V14.01,2013-01-22 09:12:00,
2013-01-22 03:22:00,43.1,38.0,30.37,South,188,0.0,0.0,82,0.00,,SCT200,0.00,VWS V14.01,2013-01-22 09:22:00,
2013-01-22 03:32:00,42.9,37.8,30.37,South,188,0.0,0.0,82,0.00,,SCT200,0.00,VWS V14.01,2013-01-22 09:32:00,
2013-01-22 03:42:00,42.9,37.8,30.37,South,188,0.0,0.0,82,0.00,,SCT200,0.00,VWS V14.01,2013-01-22 09:42:00,
2013-01-22 03:52:00,42.8,37.7,30.38,South,188,0.0,0.0,82,0.00,,SCT200,0.00,VWS V14.01,2013-01-22 09:52:00,
2013-01-22 04:02:00,42.6,37.5,30.38,South,188,0.0,0.0,82,0.00,,SCT200,0.00,VWS V14.01,2013-01-22 10:02:00,
2013-01-22 04:12:00,42.6,37.5,30.38,South,188,0.0,0.0,82,0.00,,SCT200,0.00,VWS V14.01,2013-01-22 10:12:00,
2013-01-22 04:22:00,42.8,38.0,30.38,South,188,0.0,0.0,83,0.00,,SCT200,0.00,VWS V14.01,2013-01-22 10:22:00,
2013-01-22 04:32:00,43.3,38.2,30.39,South,188,0.0,1.0,82,0.00,,SCT200,0.00,VWS V14.01,2013-01-22 10:32:00,
2013-01-22 04:42:00,43.2,37.8,30.39,South,188,0.0,1.0,81,0.00,,SCT200,0.00,VWS V14.01,2013-01-22 10:42:00,
2013-01-22 04:52:00,43.3,37.9,30.39,South,188,0.0,0.0,81,0.00,,SCT200,0.00,VWS V14.01,2013-01-22 10:52:00,
2013-01-22 05:02:00,43.6,38.2,30.39,South,188,0.0,0.0,81,0.00,,SCT200,0.00,VWS V14.01,2013-01-22 11:02:00,
2013-01-22 05:12:00,43.8,38.0,30.39,South,188,0.0,2.0,80,0.00,,SCT200,0.00,VWS V14.01,2013-01-22 11:12:00,
2013-01-22 05:22:00,43.9,37.8,30.40,South,188,0.0,1.0,79,0.00,,SCT200,0.00,VWS V14.01,2013-01-22 11:22:00,
2013-01-22 05:32:00,43.9,37.5,30.40,South,188,0.0,1.0,78,0.00,,SCT200,0.00,VWS V14.01,2013-01-22 11:32:00,
2013-01-22 05:42:00,44.1,37.7,30.40,South,188,0.0,1.0,78,0.00,,SCT200,0.00,VWS V14.01,2013-01-22 11:42:00,
2013-01-22 05:52:00,44.1,38.0,30.41,South,188,0.0,1.0,79,0.00,,SCT200,0.00,VWS V14.01,2013-01-22 11:52:00,
2013-01-22 06:02:00,44.1,38.0,30.41,South,188,0.0,1.0,79,0.00,,CLR,0.00,VWS V14.01,2013-01-22 12:02:00,
2013-01-22 06:12:00,43.8,37.7,30.41,South,188,0.0,0.0,79,0.00,,CLR,0.00,VWS V14.01,2013-01-22 12:12:00,
2013-01-22 06:22:00,43.3,37.2,30.41,South,188,0.0,0.0,79,0.00,,CLR,0.00,VWS V14.01,2013-01-22 12:22:00,
2013-01-22 06:32:00,43.1,37.0,30.41,South,188,0.0,0.0,79,0.00,,CLR,0.00,VWS V14.01,2013-01-22 12:32:00,
2013-01-22 06:42:00,42.8,37.1,30.41,South,188,0.0,0.0,80,0.00,,CLR,0.00,VWS V14.01,2013-01-22 12:42:00,
2013-01-22 06:52:00,42.5,37.1,30.41,South,188,0.0,0.0,81,0.00,,CLR,0.00,VWS V14.01,2013-01-22 12:52:00,
2013-01-22 07:02:00,42.3,36.9,30.41,South,188,0.0,0.0,81,0.00,,CLR,0.00,VWS V14.01,2013-01-22 13:02:00,
2013-01-22 07:12:00,42.5,37.4,30.41,South,188,0.0,0.0,82,0.00,,CLR,0.00,VWS V14.01,2013-01-22 13:12:00,
2013-01-22 07:22:00,42.5,37.4,30.41,South,188,0.0,0.0,82,0.00,,CLR,0.00,VWS V14.01,2013-01-22 13:22:00,
2013-01-22 07:32:00,42.3,37.2,30.41,South,188,0.0,0.0,82,0.00,,CLR,0.00,VWS V14.01,2013-01-22 13:32:00,
2013-01-22 07:42:00,42.1,37.0,30.41,South,188,0.0,0.0,82,0.00,,CLR,0.00,VWS V14.01,2013-01-22 13:42:00,
2013-01-22 07:52:00,41.8,36.7,30.42,South,188,0.0,0.0,82,0.00,,CLR,0.00,VWS V14.01,2013-01-22 13:52:00,
2013-01-22 08:02:00,41.6,36.8,30.43,South,188,0.0,0.0,83,0.00,,CLR,0.00,VWS V14.01,2013-01-22 14:02:00,
2013-01-22 08:12:00,41.8,37.0,30.43,South,188,0.0,0.0,83,0.00,,CLR,0.00,VWS V14.01,2013-01-22 14:12:00,
2013-01-22 08:22:00,42.2,37.7,30.43,South,188,0.0,0.0,84,0.00,,CLR,0.00,VWS V14.01,2013-01-22 14:22:00,
2013-01-22 08:32:00,43.1,38.6,30.43,South,188,0.0,0.0,84,0.00,,CLR,0.00,VWS V14.01,2013-01-22 14:32:00,
2013-01-22 15:22:00,72.0,49.5,30.33,ESE,109,0.0,6.0,45,0.00,,CLR,0.00,VWS V14.01,2013-01-22 21:22:00,
2013-01-22 15:32:00,72.3,49.8,30.33,East,100,0.0,4.0,45,0.00,,CLR,0.00,VWS V14.01,2013-01-22 21:32:00,
2013-01-22 15:42:00,71.6,49.8,30.33,East,95,0.0,4.0,46,0.00,,CLR,0.00,VWS V14.01,2013-01-22 21:42:00,
2013-01-22 15:52:00,72.1,49.6,30.33,East,92,0.0,4.0,45,0.00,,CLR,0.00,VWS V14.01,2013-01-22 21:52:00,
2013-01-22 16:02:00,72.3,49.8,30.33,East,92,0.0,2.0,45,0.00,,CLR,0.00,VWS V14.01,2013-01-22 22:02:00,
2013-01-22 16:12:00,71.8,49.3,30.33,East,98,0.0,5.0,45,0.00,,CLR,0.00,VWS V14.01,2013-01-22 22:12:00,
2013-01-22 16:22:00,71.8,49.3,30.33,East,82,0.0,3.0,45,0.00,,CLR,0.00,VWS V14.01,2013-01-22 22:22:00,
2013-01-22 16:32:00,71.5,49.7,30.33,East,88,0.0,7.0,46,0.00,,CLR,0.00,VWS V14.01,2013-01-22 22:32:00,
2013-01-22 16:42:00,70.8,49.6,30.33,East,95,0.0,4.0,47,0.00,,CLR,0.00,VWS V14.01,2013-01-22 22:42:00,
2013-01-22 16:52:00,70.4,49.2,30.33,East,90,0.0,7.0,47,0.00,,CLR,0.00,VWS V14.01,2013-01-22 22:52:00,
2013-01-22 17:02:00,70.3,49.7,30.33,East,85,0.0,3.0,48,0.00,,CLR,0.00,VWS V14.01,2013-01-22 23:02:00,
2013-01-22 17:12:00,69.6,49.6,30.33,East,89,0.0,2.0,49,0.00,,CLR,0.00,VWS V14.01,2013-01-22 23:12:00,
2013-01-22 17:32:00,68.8,50.0,30.34,East,94,0.0,2.0,51,0.00,,CLR,0.00,VWS V14.01,2013-01-22 23:32:00,
2013-01-22 17:42:00,68.3,49.5,30.34,East,94,0.0,2.0,51,0.00,,CLR,0.00,VWS V14.01,2013-01-22 23:42:00,
2013-01-22 17:52:00,67.8,49.5,30.33,East,94,0.0,0.0,52,0.00,,CLR,0.00,VWS V14.01,2013-01-22 23:52:00,
2013-01-22 18:02:00,67.3,49.6,30.33,East,94,0.0,0.0,53,0.00,,SCT095,0.00,VWS V14.01,2013-01-23 00:02:00,
2013-01-22 18:12:00,66.4,49.3,30.33,East,94,0.0,0.0,54,0.00,,SCT095,0.00,VWS V14.01,2013-01-23 00:12:00,
2013-01-22 18:22:00,65.6,49.0,30.33,East,94,0.0,0.0,55,0.00,,SCT095,0.00,VWS V14.01,2013-01-23 00:22:00,
2013-01-22 18:32:00,64.8,49.2,30.34,East,94,0.0,0.0,57,0.00,,SCT095,0.00,VWS V14.01,2013-01-23 00:32:00,
2013-01-22 18:42:00,63.7,48.7,30.34,East,94,0.0,0.0,58,0.00,,SCT095,0.00,VWS V14.01,2013-01-23 00:42:00,
2013-01-22 18:52:00,62.7,48.6,30.34,East,94,0.0,0.0,60,0.00,,SCT095,0.00,VWS V14.01,2013-01-23 00:52:00,
2013-01-22 19:02:00,62.0,48.4,30.34,East,94,0.0,0.0,61,0.00,,SCT095,0.00,VWS V14.01,2013-01-23 01:02:00,
2013-01-22 19:12:00,60.9,48.2,30.34,East,94,0.0,0.0,63,0.00,,SCT095,0.00,VWS V14.01,2013-01-23 01:12:00,
2013-01-22 19:22:00,60.2,48.0,30.35,East,94,0.0,0.0,64,0.00,,SCT095,0.00,VWS V14.01,2013-01-23 01:22:00,
2013-01-22 19:32:00,59.2,47.5,30.35,East,94,0.0,0.0,65,0.00,,SCT095,0.00,VWS V14.01,2013-01-23 01:32:00,
2013-01-22 19:42:00,58.3,47.4,30.35,East,94,0.0,0.0,67,0.00,,SCT095,0.00,VWS V14.01,2013-01-23 01:42:00,
2013-01-22 19:52:00,57.6,47.1,30.35,East,94,0.0,0.0,68,0.00,,SCT095,0.00,VWS V14.01,2013-01-23 01:52:00,
2013-01-22 20:02:00,57.2,47.1,30.35,East,94,0.0,0.0,69,0.00,,SCT095,0.00,VWS V14.01,2013-01-23 02:02:00,
2013-01-22 20:12:00,56.7,46.7,30.35,East,94,0.0,0.0,69,0.00,,SCT095,0.00,VWS V14.01,2013-01-23 02:12:00,
2013-01-22 20:22:00,56.7,47.4,30.36,East,94,0.0,0.0,71,0.00,,SCT095,0.00,VWS V14.01,2013-01-23 02:22:00,
2013-01-22 20:32:00,58.1,48.8,30.36,East,95,0.0,5.0,71,0.00,,SCT095,0.00,VWS V14.01,2013-01-23 02:32:00,
2013-01-22 20:42:00,59.6,49.0,30.36,East,95,0.0,2.0,68,0.00,,SCT095,0.00,VWS V14.01,2013-01-23 02:42:00,
2013-01-22 20:52:00,60.4,49.4,30.36,East,96,0.0,3.0,67,0.00,,SCT095,0.00,VWS V14.01,2013-01-23 02:52:00,
2013-01-22 21:02:00,60.4,49.4,30.36,East,96,0.0,3.0,67,0.00,,SCT095,0.00,VWS V14.01,2013-01-23 03:02:00,
2013-01-22 21:12:00,60.2,49.2,30.36,East,96,0.0,2.0,67,0.00,,SCT095,0.00,VWS V14.01,2013-01-23 03:12:00,
2013-01-22 21:22:00,60.1,49.1,30.36,East,96,0.0,4.0,67,0.00,,SCT095,0.00,VWS V14.01,2013-01-23 03:22:00,
2013-01-22 21:32:00,59.8,49.2,30.36,East,97,0.0,4.0,68,0.00,,SCT095,0.00,VWS V14.01,2013-01-23 03:32:00,
2013-01-22 21:42:00,59.5,48.9,30.36,East,98,0.0,3.0,68,0.00,,SCT095,0.00,VWS V14.01,2013-01-23 03:42:00,
2013-01-22 21:52:00,59.2,49.0,30.37,ESE,108,0.0,3.0,69,0.00,,SCT095,0.00,VWS V14.01,2013-01-23 03:52:00,
2013-01-22 22:02:00,58.9,48.8,30.37,ESE,108,0.0,1.0,69,0.00,,SCT095,0.00,VWS V14.01,2013-01-23 04:02:00,
2013-01-22 22:12:00,58.6,48.9,30.37,ESE,107,0.0,3.0,70,0.00,,SCT095,0.00,VWS V14.01,2013-01-23 04:12:00,
2013-01-22 22:22:00,58.4,49.0,30.38,ESE,107,0.0,1.0,71,0.00,,SCT095,0.00,VWS V14.01,2013-01-23 04:22:00,
2013-01-22 22:32:00,58.1,48.8,30.39,ESE,108,0.0,3.0,71,0.00,,SCT095,0.00,VWS V14.01,2013-01-23 04:32:00,
2013-01-22 22:42:00,57.6,48.7,30.39,ESE,108,0.0,0.0,72,0.00,,SCT095,0.00,VWS V14.01,2013-01-23 04:42:00,
2013-01-22 22:52:00,57.3,48.7,30.39,ESE,108,0.0,1.0,73,0.00,,SCT095,0.00,VWS V14.01,2013-01-23 04:52:00,
2013-01-22 23:12:00,56.5,48.0,30.40,ESE,108,0.0,0.0,73,0.00,,SCT095,0.00,VWS V14.01,2013-01-23 05:12:00,
2013-01-22 23:22:00,55.9,47.7,30.40,ESE,108,0.0,0.0,74,0.00,,SCT095,0.00,VWS V14.01,2013-01-23 05:22:00,
2013-01-22 23:32:00,55.3,47.5,30.40,ESE,108,0.0,0.0,75,0.00,,SCT095,0.00,VWS V14.01,2013-01-23 05:32:00,
2013-01-22 23:42:00,54.8,47.4,30.40,ESE,108,0.0,0.0,76,0.00,,SCT095,0.00,VWS V14.01,2013-01-23 05:42:00,
2013-01-22 23:52:00,54.4,47.3,30.40,ESE,108,0.0,0.0,77,0.00,,SCT095,0.00,VWS V14.01,2013-01-23 05:52:00,